"read_dt","SO2 (ppb)","flags","PMT voltage (V)","lamp voltage (V)","lamp intensity (Hz)","internal temp (C)","react chamber temp (C)","sample flow (l/min)","pres (mmHg)","SO2 bkg (ppb)","SO2 coefficient"
2014-02-16 00:00:00,5188E-2,5C000490,-0724,1374,6569,027.8,045.3,0.000,771.8,01.15,0.508
2014-02-16 00:01:00,5205E-2,5C000490,-0724,1374,6670,027.8,045.3,0.000,771.8,01.15,0.508
2014-02-16 00:02:00,5173E-2,5C000490,-0724,1374,6601,027.8,045.3,0.000,771.8,01.15,0.508
2014-02-16 00:03:00,5147E-2,5C000490,-0724,1374,6620,027.8,045.3,0.000,771.8,01.15,0.508
2014-02-16 00:04:00,5193E-2,5C000490,-0724,1374,6621,027.8,045.3,0.000,771.7,01.15,0.508
2014-02-16 00:05:00,5214E-2,5C000490,-0724,1374,6591,027.9,045.3,0.000,771.8,01.15,0.508
2014-02-16 00:06:00,5117E-2,5C000490,-0724,1374,6522,027.8,045.3,0.000,771.8,01.15,0.508
2014-02-16 00:07:00,5200E-2,5C000490,-0724,1375,6634,027.9,045.3,0.000,771.8,01.15,0.508
2014-02-16 00:08:00,5166E-2,5C000490,-0724,1375,6642,027.9,045.3,0.000,771.8,01.15,0.508
2014-02-16 00:09:00,5161E-2,5C000490,-0724,1375,6506,027.8,045.3,0.000,771.7,01.15,0.508
2014-02-16 00:10:00,5165E-2,5C000490,-0724,1375,6509,027.9,045.3,0.000,771.8,01.15,0.508
2014-02-16 00:11:00,5170E-2,5C000490,-0724,1375,6542,027.9,045.3,0.000,771.8,01.15,0.508
2014-02-16 00:12:00,5178E-2,5C000490,-0724,1375,6531,027.9,045.3,0.000,771.8,01.15,0.508
2014-02-16 00:13:00,5117E-2,5C000490,-0724,1375,6575,027.9,045.3,0.000,771.8,01.15,0.508
2014-02-16 00:14:00,5138E-2,5C000490,-0724,1375,6569,027.9,045.3,0.000,771.8,01.15,0.508
2014-02-16 00:15:00,5120E-2,5C000490,-0724,1375,6503,027.9,045.3,0.000,771.8,01.15,0.508
2014-02-16 00:16:00,5176E-2,5C000490,-0724,1375,6559,027.9,045.3,0.000,771.8,01.15,0.508
2014-02-16 00:17:00,5162E-2,5C000490,-0724,1375,6485,027.9,045.3,0.000,771.9,01.15,0.508
2014-02-16 00:18:00,5170E-2,5C000490,-0724,1375,6500,027.9,045.3,0.000,771.8,01.15,0.508
2014-02-16 00:19:00,5138E-2,5C000490,-0724,1375,6464,027.9,045.3,0.000,771.8,01.15,0.508
2014-02-16 00:20:00,5125E-2,5C000490,-0724,1375,6450,027.9,045.3,0.000,771.8,01.15,0.508
2014-02-16 00:21:00,5088E-2,5C000490,-0724,1376,6439,027.9,045.3,0.000,771.8,01.15,0.508
2014-02-16 00:22:00,5178E-2,5C000490,-0724,1376,6451,027.9,045.3,0.000,771.8,01.15,0.508
2014-02-16 00:23:00,5160E-2,5C000490,-0724,1376,6368,027.9,045.3,0.000,771.6,01.15,0.508
2014-02-16 00:24:00,5184E-2,5C000490,-0724,1376,6446,027.9,045.3,0.000,771.6,01.15,0.508
2014-02-16 00:25:00,5219E-2,5C000490,-0724,1376,6450,028.0,045.3,0.000,771.7,01.15,0.508
2014-02-16 00:26:00,5165E-2,5C000490,-0724,1376,6408,028.0,045.3,0.000,771.6,01.15,0.508
2014-02-16 00:27:00,5184E-2,5C000490,-0724,1376,6421,028.0,045.3,0.000,771.7,01.15,0.508
2014-02-16 00:28:00,5219E-2,5C000490,-0724,1376,6396,028.0,045.3,0.000,771.8,01.15,0.508
2014-02-16 00:29:00,5175E-2,5C000490,-0724,1376,6400,028.0,045.3,0.000,771.8,01.15,0.508
2014-02-16 00:30:00,5124E-2,5C000490,-0724,1376,6427,028.0,045.3,0.000,771.8,01.15,0.508
2014-02-16 00:31:00,5218E-2,5C000490,-0724,1376,6400,028.0,045.3,0.000,771.7,01.15,0.508
2014-02-16 00:32:00,5159E-2,5C000490,-0724,1376,6252,028.0,045.3,0.000,771.7,01.15,0.508
2014-02-16 00:33:00,5138E-2,5C000490,-0724,1376,6449,028.0,045.3,0.000,771.8,01.15,0.508
2014-02-16 00:34:00,5124E-2,5C000490,-0724,1376,6399,028.0,045.3,0.000,771.8,01.15,0.508
2014-02-16 00:35:00,5178E-2,5C000490,-0724,1376,6389,028.0,045.3,0.000,771.8,01.15,0.508
2014-02-16 00:36:00,5209E-2,5C000490,-0724,1376,6438,028.0,045.3,0.000,771.7,01.15,0.508
2014-02-16 00:37:00,5206E-2,5C000490,-0724,1376,6431,028.0,045.3,0.000,771.7,01.15,0.508
2014-02-16 00:38:00,5207E-2,5C000490,-0724,1376,6456,028.0,045.3,0.000,771.8,01.15,0.508
2014-02-16 00:39:00,5157E-2,5C000490,-0724,1376,6339,028.0,045.3,0.000,771.8,01.15,0.508
2014-02-16 00:40:00,5126E-2,5C000490,-0724,1376,6273,028.0,045.3,0.000,771.8,01.15,0.508
2014-02-16 00:41:00,5150E-2,5C000490,-0724,1376,6322,028.0,045.3,0.000,771.8,01.15,0.508
2014-02-16 00:42:00,5157E-2,5C000490,-0724,1376,6386,028.0,045.3,0.000,771.7,01.15,0.508
2014-02-16 00:43:00,5160E-2,5C000490,-0724,1376,6334,028.0,045.3,0.000,771.8,01.15,0.508
2014-02-16 00:44:00,5139E-2,5C000490,-0724,1376,6345,028.0,045.3,0.000,771.8,01.15,0.508
2014-02-16 00:45:00,5142E-2,5C000490,-0724,1376,6318,028.0,045.3,0.000,771.8,01.15,0.508
2014-02-16 00:46:00,5132E-2,5C000490,-0724,1376,6342,028.0,045.3,0.000,771.7,01.15,0.508
2014-02-16 00:47:00,5134E-2,5C000490,-0724,1376,6370,028.0,045.3,0.000,771.7,01.15,0.508
2014-02-16 00:48:00,5129E-2,5C000490,-0724,1376,6353,028.0,045.3,0.000,771.8,01.15,0.508
2014-02-16 00:49:00,5132E-2,5C000490,-0724,1376,6359,028.0,045.3,0.000,771.8,01.15,0.508
2014-02-16 00:50:00,5174E-2,5C000490,-0724,1376,6351,028.0,045.3,0.000,771.7,01.15,0.508
2014-02-16 00:51:00,5170E-2,5C000490,-0724,1376,6314,028.0,045.3,0.000,771.7,01.15,0.508
2014-02-16 00:52:00,5069E-2,5C000490,-0724,1376,6185,028.0,045.3,0.000,771.8,01.15,0.508
2014-02-16 00:53:00,5100E-2,5C000490,-0724,1376,6279,028.1,045.3,0.000,771.7,01.15,0.508
2014-02-16 00:54:00,5131E-2,5C000490,-0724,1376,6289,028.0,045.3,0.000,771.7,01.15,0.508
2014-02-16 00:55:00,5090E-2,5C000490,-0724,1376,6271,028.1,045.3,0.000,771.8,01.15,0.508
2014-02-16 00:56:00,5074E-2,5C000490,-0724,1376,6298,028.0,045.3,0.000,771.6,01.15,0.508
2014-02-16 00:57:00,5178E-2,5C000490,-0724,1376,6243,028.1,045.3,0.000,771.6,01.15,0.508
2014-02-16 00:58:00,5068E-2,5C000490,-0724,1376,6251,028.1,045.3,0.000,771.7,01.15,0.508
2014-02-16 00:59:00,5100E-2,5C000490,-0724,1376,6312,028.1,045.3,0.000,771.6,01.15,0.508
2014-02-16 01:00:00,5111E-2,5C000490,-0724,1376,6307,028.1,045.3,0.000,771.6,01.15,0.508
2014-02-16 01:01:00,5140E-2,5C000490,-0724,1376,6254,028.1,045.3,0.000,771.6,01.15,0.508
2014-02-16 01:02:00,5100E-2,5C000490,-0724,1376,6242,028.1,045.3,0.000,771.7,01.15,0.508
2014-02-16 01:03:00,5188E-2,5C000490,-0724,1376,6234,028.1,045.3,0.000,771.7,01.15,0.508
2014-02-16 01:04:00,5137E-2,5C000490,-0724,1376,6223,028.1,045.3,0.000,771.7,01.15,0.508
2014-02-16 01:05:00,5145E-2,5C000490,-0724,1376,6235,028.1,045.3,0.000,771.6,01.15,0.508
2014-02-16 01:06:00,5131E-2,5C000490,-0724,1376,6229,028.1,045.3,0.000,771.6,01.15,0.508
2014-02-16 01:07:00,5166E-2,5C000490,-0724,1376,6182,028.1,045.3,0.000,771.7,01.15,0.508
2014-02-16 01:08:00,5184E-2,5C000490,-0724,1376,6099,028.1,045.3,0.000,771.7,01.15,0.508
2014-02-16 01:09:00,5193E-2,5C000490,-0724,1376,6227,028.1,045.3,0.000,771.6,01.15,0.508
2014-02-16 01:10:00,5156E-2,5C000490,-0724,1376,6223,028.1,045.3,0.000,771.6,01.15,0.508
2014-02-16 01:11:00,5121E-2,5C000490,-0724,1376,6207,028.1,045.3,0.000,771.8,01.15,0.508
2014-02-16 01:12:00,5135E-2,5C000490,-0724,1376,6257,028.1,045.3,0.000,771.8,01.15,0.508
2014-02-16 01:13:00,5154E-2,5C000490,-0724,1376,6256,028.1,045.3,0.000,771.7,01.15,0.508
2014-02-16 01:14:00,5162E-2,5C000490,-0724,1376,6220,028.1,045.3,0.000,771.7,01.15,0.508
2014-02-16 01:15:00,5154E-2,5C000490,-0724,1376,6185,028.1,045.3,0.000,771.7,01.15,0.508
2014-02-16 01:16:00,5150E-2,5C000490,-0724,1376,6336,028.1,045.3,0.000,771.8,01.15,0.508
2014-02-16 01:17:00,5177E-2,5C000490,-0724,1376,6479,028.1,045.3,0.000,771.7,01.15,0.508
2014-02-16 01:18:00,5287E-2,5C000490,-0724,1375,6467,028.1,045.3,0.000,771.7,01.15,0.508
2014-02-16 01:19:00,5220E-2,5C000490,-0724,1376,6581,028.1,045.3,0.000,771.8,01.15,0.508
2014-02-16 01:20:00,5233E-2,5C000490,-0724,1376,6448,028.1,045.3,0.000,771.8,01.15,0.508
2014-02-16 01:21:00,5201E-2,5C000490,-0724,1376,6496,028.1,045.3,0.000,771.8,01.15,0.508
2014-02-16 01:22:00,5187E-2,5C000490,-0724,1376,6421,028.2,045.3,0.000,771.8,01.15,0.508
2014-02-16 01:23:00,5252E-2,5C000490,-0724,1376,6355,028.1,045.3,0.000,771.7,01.15,0.508
2014-02-16 01:24:00,5235E-2,5C000490,-0724,1376,6368,028.2,045.3,0.000,771.8,01.15,0.508
2014-02-16 01:25:00,5266E-2,5C000490,-0724,1376,6342,028.2,045.3,0.000,771.8,01.15,0.508
2014-02-16 01:26:00,5232E-2,5C000490,-0724,1376,6384,028.2,045.3,0.000,771.7,01.15,0.508
2014-02-16 01:27:00,5287E-2,5C000490,-0724,1376,6406,028.2,045.3,0.000,771.8,01.15,0.508
2014-02-16 01:28:00,5335E-2,5C000490,-0724,1376,6378,028.2,045.3,0.000,771.7,01.15,0.508
2014-02-16 01:29:00,5326E-2,5C000490,-0724,1376,6412,028.2,045.3,0.000,771.8,01.15,0.508
2014-02-16 01:30:00,5269E-2,5C000490,-0724,1376,6406,028.2,045.3,0.000,771.8,01.15,0.508
2014-02-16 01:31:00,5303E-2,5C000490,-0724,1376,6417,028.2,045.3,0.000,771.8,01.15,0.508
2014-02-16 01:32:00,5337E-2,5C000490,-0724,1376,6388,028.2,045.3,0.000,771.8,01.15,0.508
2014-02-16 01:33:00,5288E-2,5C000490,-0724,1376,6408,028.2,045.3,0.000,771.8,01.15,0.508
2014-02-16 01:34:00,5276E-2,5C000490,-0724,1376,6416,028.2,045.3,0.000,771.9,01.15,0.508
2014-02-16 01:35:00,5344E-2,5C000490,-0724,1376,6454,028.2,045.3,0.000,771.9,01.15,0.508
2014-02-16 01:36:00,5255E-2,5C000490,-0724,1376,6431,028.2,045.3,0.000,771.8,01.15,0.508
2014-02-16 01:37:00,5247E-2,5C000490,-0724,1376,6318,028.2,045.3,0.000,771.9,01.15,0.508
2014-02-16 01:38:00,5240E-2,5C000490,-0724,1376,6294,028.2,045.3,0.000,771.9,01.15,0.508
2014-02-16 01:39:00,5251E-2,5C000490,-0724,1376,6323,028.2,045.3,0.000,771.8,01.15,0.508
2014-02-16 01:40:00,5248E-2,5C000490,-0724,1376,6331,028.2,045.3,0.000,771.9,01.15,0.508
2014-02-16 01:41:00,5224E-2,5C000490,-0724,1376,6328,028.2,045.3,0.000,771.9,01.15,0.508
2014-02-16 01:42:00,5284E-2,5C000490,-0724,1376,6213,028.2,045.3,0.000,771.8,01.15,0.508
2014-02-16 01:43:00,5241E-2,5C000490,-0724,1376,6439,028.2,045.3,0.000,771.9,01.15,0.508
2014-02-16 01:44:00,5270E-2,5C000490,-0724,1376,6354,028.2,045.3,0.000,771.9,01.15,0.508
2014-02-16 01:45:00,5247E-2,5C000490,-0724,1376,6374,028.2,045.3,0.000,771.9,01.15,0.508
2014-02-16 01:46:00,5203E-2,5C000490,-0724,1376,6364,028.2,045.3,0.000,772.0,01.15,0.508
2014-02-16 01:47:00,5235E-2,5C000490,-0724,1376,6427,028.2,045.3,0.000,771.9,01.15,0.508
2014-02-16 01:48:00,5213E-2,5C000490,-0724,1376,6381,028.2,045.3,0.000,771.8,01.15,0.508
2014-02-16 01:49:00,5236E-2,5C000490,-0724,1376,6345,028.2,045.3,0.000,772.0,01.15,0.508
2014-02-16 01:50:00,5256E-2,5C000490,-0724,1376,6332,028.2,045.3,0.000,771.9,01.15,0.508
2014-02-16 01:51:00,5294E-2,5C000490,-0724,1376,6372,028.2,045.3,0.000,771.9,01.15,0.508
2014-02-16 01:52:00,5281E-2,5C000490,-0724,1376,6261,028.3,045.3,0.000,771.9,01.15,0.508
2014-02-16 01:53:00,5268E-2,5C000490,-0724,1376,6254,028.3,045.3,0.000,771.9,01.15,0.508
2014-02-16 01:54:00,5283E-2,5C000490,-0724,1376,6243,028.3,045.3,0.000,771.9,01.15,0.508
2014-02-16 01:55:00,5292E-2,5C000490,-0724,1376,6294,028.3,045.3,0.000,771.9,01.15,0.508
2014-02-16 01:56:00,5326E-2,5C000490,-0724,1376,6309,028.3,045.3,0.000,771.9,01.15,0.508
2014-02-16 01:57:00,5314E-2,5C000490,-0724,1376,6284,028.3,045.3,0.000,771.9,01.15,0.508
2014-02-16 01:58:00,5348E-2,5C000490,-0724,1376,6296,028.3,045.3,0.000,771.9,01.15,0.508
2014-02-16 01:59:00,5267E-2,5C000490,-0724,1376,6318,028.3,045.3,0.000,771.9,01.15,0.508
2014-02-16 02:00:00,5278E-2,5C000490,-0724,1376,6227,028.3,045.3,0.000,772.0,01.15,0.508
2014-02-16 02:01:00,5271E-2,5C000490,-0724,1376,6313,028.3,045.3,0.000,771.9,01.15,0.508
2014-02-16 02:02:00,5313E-2,5C000490,-0724,1376,6337,028.3,045.3,0.000,771.9,01.15,0.508
2014-02-16 02:03:00,5329E-2,5C000490,-0724,1376,6302,028.3,045.3,0.000,772.0,01.15,0.508
2014-02-16 02:04:00,5290E-2,5C000490,-0724,1376,6334,028.3,045.3,0.000,772.0,01.15,0.508
2014-02-16 02:05:00,5297E-2,5C000490,-0724,1376,6229,028.3,045.3,0.000,771.9,01.15,0.508
2014-02-16 02:06:00,5234E-2,5C000490,-0724,1376,6275,028.3,045.3,0.000,771.9,01.15,0.508
2014-02-16 02:07:00,5271E-2,5C000490,-0724,1376,6313,028.3,045.3,0.000,771.9,01.15,0.508
2014-02-16 02:08:00,5275E-2,5C000490,-0724,1376,6300,028.3,045.3,0.000,771.9,01.15,0.508
2014-02-16 02:09:00,5318E-2,5C000490,-0724,1376,6247,028.3,045.3,0.000,771.9,01.15,0.508
2014-02-16 02:10:00,5306E-2,5C000490,-0724,1376,6189,028.3,045.3,0.000,771.9,01.15,0.508
2014-02-16 02:11:00,5272E-2,5C000490,-0724,1376,6228,028.3,045.3,0.000,771.9,01.15,0.508
2014-02-16 02:12:00,5253E-2,5C000490,-0724,1376,6199,028.3,045.3,0.000,771.9,01.15,0.508
2014-02-16 02:13:00,5216E-2,5C000490,-0724,1376,6215,028.3,045.3,0.000,771.9,01.15,0.508
2014-02-16 02:14:00,5235E-2,5C000490,-0724,1376,6195,028.4,045.3,0.000,771.9,01.15,0.508
2014-02-16 02:15:00,5178E-2,5C000490,-0724,1376,6313,028.4,045.3,0.000,771.9,01.15,0.508
2014-02-16 02:16:00,5189E-2,5C000490,-0724,1376,6190,028.4,045.3,0.000,771.9,01.15,0.508
2014-02-16 02:17:00,5229E-2,5C000490,-0724,1376,6185,028.4,045.3,0.000,771.8,01.15,0.508
2014-02-16 02:18:00,5262E-2,5C000490,-0724,1376,6246,028.4,045.3,0.000,771.9,01.15,0.508
2014-02-16 02:19:00,5302E-2,5C000490,-0724,1376,6258,028.4,045.3,0.000,771.9,01.15,0.508
2014-02-16 02:20:00,5221E-2,5C000490,-0724,1376,6143,028.4,045.3,0.000,771.8,01.15,0.508
2014-02-16 02:21:00,5275E-2,5C000490,-0724,1376,6298,028.4,045.3,0.000,771.8,01.15,0.508
2014-02-16 02:22:00,5230E-2,5C000490,-0724,1376,6190,028.4,045.3,0.000,771.9,01.15,0.508
2014-02-16 02:23:00,5254E-2,5C000490,-0724,1376,6188,028.4,045.3,0.000,771.9,01.15,0.508
2014-02-16 02:24:00,5190E-2,5C000490,-0724,1376,6249,028.4,045.3,0.000,771.9,01.15,0.508
2014-02-16 02:25:00,5281E-2,5C000490,-0724,1376,6196,028.4,045.3,0.000,771.9,01.15,0.508
2014-02-16 02:26:00,5234E-2,5C000490,-0724,1376,6243,028.4,045.3,0.000,771.9,01.15,0.508
2014-02-16 02:27:00,5199E-2,5C000490,-0724,1376,6245,028.4,045.3,0.000,771.8,01.15,0.508
2014-02-16 02:28:00,5230E-2,5C000490,-0724,1376,6162,028.4,045.3,0.000,771.9,01.15,0.508
2014-02-16 02:29:00,5235E-2,5C000490,-0724,1376,6154,028.4,045.3,0.000,771.9,01.15,0.508
2014-02-16 02:30:00,5192E-2,5C000490,-0724,1376,6226,028.4,045.3,0.000,771.9,01.15,0.508
2014-02-16 02:31:00,5260E-2,5C000490,-0724,1376,6189,028.4,045.3,0.000,771.9,01.15,0.508
2014-02-16 02:32:00,5213E-2,5C000490,-0724,1376,6207,028.4,045.3,0.000,771.9,01.15,0.508
2014-02-16 02:33:00,5185E-2,5C000490,-0724,1376,6195,028.4,045.3,0.000,771.9,01.15,0.508
2014-02-16 02:34:00,5233E-2,5C000490,-0724,1376,6135,028.4,045.3,0.000,771.9,01.15,0.508
2014-02-16 02:35:00,5224E-2,5C000490,-0724,1376,6096,028.4,045.3,0.000,771.9,01.15,0.508
2014-02-16 02:36:00,5253E-2,5C000490,-0724,1376,5948,028.4,045.3,0.000,772.0,01.15,0.508
2014-02-16 02:37:00,5176E-2,5C000490,-0724,1376,6140,028.4,045.3,0.000,772.0,01.15,0.508
2014-02-16 02:38:00,5187E-2,5C000490,-0724,1376,6107,028.5,045.3,0.000,771.9,01.15,0.508
2014-02-16 02:39:00,5220E-2,5C000490,-0724,1376,6123,028.4,045.3,0.000,771.9,01.15,0.508
2014-02-16 02:40:00,5182E-2,5C000490,-0724,1376,6066,028.5,045.3,0.000,772.0,01.15,0.508
2014-02-16 02:41:00,5258E-2,5C000490,-0724,1376,6089,028.4,045.3,0.000,772.0,01.15,0.508
2014-02-16 02:42:00,5166E-2,5C000490,-0724,1376,6141,028.5,045.3,0.000,771.9,01.15,0.508
2014-02-16 02:43:00,5099E-2,5C000490,-0724,1376,6109,028.4,045.3,0.000,771.9,01.15,0.508
2014-02-16 02:44:00,5144E-2,5C000490,-0724,1376,6067,028.5,045.3,0.000,772.0,01.15,0.508
2014-02-16 02:45:00,5216E-2,5C000490,-0724,1376,6062,028.5,045.3,0.000,771.9,01.15,0.508
2014-02-16 02:46:00,5182E-2,5C000490,-0724,1376,6091,028.5,045.3,0.000,771.9,01.15,0.508
2014-02-16 02:47:00,5190E-2,5C000490,-0724,1376,6013,028.5,045.3,0.000,771.9,01.15,0.508
2014-02-16 02:48:00,5194E-2,5C000490,-0724,1376,6144,028.5,045.3,0.000,771.9,01.15,0.508
2014-02-16 02:49:00,5206E-2,5C000490,-0724,1376,6093,028.5,045.3,0.000,771.9,01.15,0.508
2014-02-16 02:50:00,5151E-2,5C000490,-0724,1376,6159,028.5,045.3,0.000,771.9,01.15,0.508
2014-02-16 02:51:00,5216E-2,5C000490,-0724,1376,6036,028.5,045.3,0.000,771.9,01.15,0.508
2014-02-16 02:52:00,5161E-2,5C000490,-0724,1376,5997,028.5,045.3,0.000,771.9,01.15,0.508
2014-02-16 02:53:00,5188E-2,5C000490,-0724,1376,5997,028.5,045.3,0.000,771.9,01.15,0.508
2014-02-16 02:54:00,5177E-2,5C000490,-0724,1376,6118,028.5,045.3,0.000,771.9,01.15,0.508
2014-02-16 02:55:00,5165E-2,5C000490,-0724,1376,6088,028.5,045.3,0.000,771.8,01.15,0.508
2014-02-16 02:56:00,5172E-2,5C000490,-0724,1376,6159,028.5,045.3,0.000,771.8,01.15,0.508
2014-02-16 02:57:00,5178E-2,5C000490,-0724,1376,6109,028.5,045.3,0.000,771.8,01.15,0.508
2014-02-16 02:58:00,5194E-2,5C000490,-0724,1376,6083,028.5,045.3,0.000,771.8,01.15,0.508
2014-02-16 02:59:00,5151E-2,5C000490,-0724,1376,6042,028.5,045.3,0.000,771.9,01.15,0.508
2014-02-16 03:00:00,5138E-2,5C000490,-0724,1376,6101,028.6,045.3,0.000,771.7,01.15,0.508
2014-02-16 03:01:00,5138E-2,5C000490,-0724,1376,6022,028.5,045.3,0.000,771.8,01.15,0.508
2014-02-16 03:02:00,5150E-2,5C000490,-0724,1376,6168,028.6,045.3,0.000,771.8,01.15,0.508
2014-02-16 03:03:00,5121E-2,5C000490,-0724,1376,6099,028.5,045.3,0.000,771.8,01.15,0.508
2014-02-16 03:04:00,5119E-2,5C000490,-0724,1376,6136,028.6,045.3,0.000,771.7,01.15,0.508
2014-02-16 03:05:00,5201E-2,5C000490,-0724,1376,6095,028.6,045.3,0.000,771.8,01.15,0.508
2014-02-16 03:06:00,5086E-2,5C000490,-0724,1376,6102,028.6,045.3,0.000,771.8,01.15,0.508
2014-02-16 03:07:00,5173E-2,5C000490,-0724,1376,6130,028.6,045.3,0.000,771.8,01.15,0.508
2014-02-16 03:08:00,5107E-2,5C000490,-0724,1376,6065,028.6,045.3,0.000,771.8,01.15,0.508
2014-02-16 03:09:00,5190E-2,5C000490,-0724,1376,6047,028.6,045.3,0.000,771.7,01.15,0.508
2014-02-16 03:10:00,5146E-2,5C000490,-0724,1376,6113,028.6,045.3,0.000,771.8,01.15,0.508
2014-02-16 03:11:00,5154E-2,5C000490,-0724,1376,6096,028.6,045.3,0.000,771.8,01.15,0.508
2014-02-16 03:12:00,5123E-2,5C000490,-0724,1376,6049,028.6,045.3,0.000,771.8,01.15,0.508
2014-02-16 03:13:00,5150E-2,5C000490,-0724,1376,6005,028.6,045.3,0.000,771.8,01.15,0.508
2014-02-16 03:14:00,5144E-2,5C000490,-0724,1376,6082,028.6,045.3,0.000,771.7,01.15,0.508
2014-02-16 03:15:00,5162E-2,5C000490,-0724,1376,5979,028.6,045.3,0.000,771.8,01.15,0.508
2014-02-16 03:16:00,5120E-2,5C000490,-0724,1376,5978,028.6,045.3,0.000,771.8,01.15,0.508
2014-02-16 03:17:00,5135E-2,5C000490,-0724,1376,6017,028.6,045.3,0.000,771.8,01.15,0.508
2014-02-16 03:18:00,5149E-2,5C000490,-0724,1376,6011,028.6,045.3,0.000,771.8,01.15,0.508
2014-02-16 03:19:00,5058E-2,5C000490,-0724,1376,5998,028.6,045.3,0.000,771.8,01.15,0.508
2014-02-16 03:20:00,5110E-2,5C000490,-0724,1376,5984,028.6,045.3,0.000,771.8,01.15,0.508
2014-02-16 03:21:00,5110E-2,5C000490,-0724,1376,5972,028.6,045.3,0.000,771.8,01.15,0.508
2014-02-16 03:22:00,5093E-2,5C000490,-0724,1376,5926,028.7,045.3,0.000,771.8,01.15,0.508
2014-02-16 03:23:00,5122E-2,5C000490,-0724,1376,6008,028.6,045.3,0.000,771.8,01.15,0.508
2014-02-16 03:24:00,5091E-2,5C000490,-0724,1376,6051,028.7,045.3,0.000,771.8,01.15,0.508
2014-02-16 03:25:00,5120E-2,5C000490,-0724,1376,6015,028.6,045.3,0.000,771.8,01.15,0.508
2014-02-16 03:26:00,5157E-2,5C000490,-0724,1376,5913,028.6,045.3,0.000,771.8,01.15,0.508
2014-02-16 03:27:00,5106E-2,5C000490,-0724,1376,6025,028.7,045.3,0.000,771.8,01.15,0.508
2014-02-16 03:28:00,5127E-2,5C000490,-0724,1376,5955,028.7,045.3,0.000,771.8,01.15,0.508
2014-02-16 03:29:00,5097E-2,5C000490,-0724,1376,5952,028.7,045.3,0.000,771.8,01.15,0.508
2014-02-16 03:30:00,5093E-2,5C000490,-0724,1376,5999,028.7,045.3,0.000,771.8,01.15,0.508
2014-02-16 03:31:00,5142E-2,5C000490,-0724,1376,5876,028.6,045.3,0.000,771.8,01.15,0.508
2014-02-16 03:32:00,5127E-2,5C000490,-0724,1376,5818,028.7,045.3,0.000,771.8,01.15,0.508
2014-02-16 03:33:00,5165E-2,5C000490,-0724,1376,5911,028.7,045.3,0.000,771.8,01.15,0.508
2014-02-16 03:34:00,5088E-2,5C000490,-0724,1376,5917,028.7,045.3,0.000,771.8,01.15,0.508
2014-02-16 03:35:00,5154E-2,5C000490,-0724,1376,5898,028.7,045.3,0.000,771.8,01.15,0.508
2014-02-16 03:36:00,5081E-2,5C000490,-0724,1376,5944,028.7,045.3,0.000,771.8,01.15,0.508
2014-02-16 03:37:00,5051E-2,5C000490,-0724,1376,5815,028.7,045.3,0.000,771.8,01.15,0.508
2014-02-16 03:38:00,5076E-2,5C000490,-0724,1376,5926,028.7,045.3,0.000,771.8,01.15,0.508
2014-02-16 03:39:00,5056E-2,5C000490,-0724,1376,5959,028.7,045.3,0.000,771.8,01.15,0.508
2014-02-16 03:40:00,5046E-2,5C000490,-0724,1376,5827,028.7,045.3,0.000,771.8,01.15,0.508
2014-02-16 03:41:00,5086E-2,5C000490,-0724,1376,5911,028.7,045.3,0.000,771.7,01.15,0.508
2014-02-16 03:42:00,5092E-2,5C000490,-0724,1376,5974,028.7,045.3,0.000,771.8,01.15,0.508
2014-02-16 03:43:00,5082E-2,5C000490,-0724,1376,5871,028.7,045.3,0.000,771.8,01.15,0.508
2014-02-16 03:44:00,5086E-2,5C000490,-0724,1376,5893,028.7,045.3,0.000,771.8,01.15,0.508
2014-02-16 03:45:00,5096E-2,5C000490,-0724,1376,5933,028.7,045.3,0.000,771.8,01.15,0.508
2014-02-16 03:46:00,5066E-2,5C000490,-0724,1376,5882,028.7,045.3,0.000,771.8,01.15,0.508
2014-02-16 03:47:00,5075E-2,5C000490,-0724,1376,5889,028.7,045.3,0.000,771.9,01.15,0.508
2014-02-16 03:48:00,5041E-2,5C000490,-0724,1376,5830,028.7,045.3,0.000,771.8,01.15,0.508
2014-02-16 03:49:00,5040E-2,5C000490,-0724,1376,5797,028.7,045.3,0.000,771.8,01.15,0.508
2014-02-16 03:50:00,5077E-2,5C000490,-0724,1376,5821,028.7,045.3,0.000,771.8,01.15,0.508
2014-02-16 03:51:00,5064E-2,5C000490,-0724,1376,5920,028.8,045.3,0.000,771.8,01.15,0.508
2014-02-16 03:52:00,5040E-2,5C000490,-0724,1376,5880,028.8,045.3,0.000,771.8,01.15,0.508
2014-02-16 03:53:00,5057E-2,5C000490,-0724,1376,5844,028.7,045.3,0.000,771.8,01.15,0.508
2014-02-16 03:54:00,5053E-2,5C000490,-0724,1376,5843,028.7,045.3,0.000,771.8,01.15,0.508
2014-02-16 03:55:00,5039E-2,5C000490,-0724,1376,5840,028.8,045.3,0.000,771.8,01.15,0.508
2014-02-16 03:56:00,5065E-2,5C000490,-0724,1376,5849,028.7,045.3,0.000,771.8,01.15,0.508
2014-02-16 03:57:00,4990E-2,5C000490,-0724,1376,5745,028.8,045.3,0.000,771.9,01.15,0.508
2014-02-16 03:58:00,4994E-2,5C000490,-0724,1376,5858,028.8,045.3,0.000,771.8,01.15,0.508
2014-02-16 03:59:00,5031E-2,5C000490,-0724,1376,5748,028.8,045.3,0.000,771.8,01.15,0.508
2014-02-16 04:00:00,4996E-2,5C000490,-0724,1376,5788,028.8,045.3,0.000,771.8,01.15,0.508
2014-02-16 04:01:00,5028E-2,5C000490,-0724,1376,5736,028.8,045.3,0.000,771.8,01.15,0.508
2014-02-16 04:02:00,5098E-2,5C000490,-0724,1376,5782,028.8,045.3,0.000,771.8,01.15,0.508
2014-02-16 04:03:00,5040E-2,5C000490,-0724,1376,5693,028.8,045.3,0.000,771.8,01.15,0.508
2014-02-16 04:04:00,5060E-2,5C000490,-0724,1376,5812,028.8,045.3,0.000,771.8,01.15,0.508
2014-02-16 04:05:00,4978E-2,5C000490,-0724,1376,5808,028.8,045.3,0.000,771.8,01.15,0.508
2014-02-16 04:06:00,4988E-2,5C000490,-0724,1376,5781,028.8,045.3,0.000,771.8,01.15,0.508
2014-02-16 04:07:00,5004E-2,5C000490,-0724,1376,5778,028.8,045.3,0.000,771.8,01.15,0.508
2014-02-16 04:08:00,5027E-2,5C000490,-0724,1376,5790,028.8,045.3,0.000,771.9,01.15,0.508
2014-02-16 04:09:00,4981E-2,5C000490,-0724,1376,5798,028.8,045.3,0.000,771.9,01.15,0.508
2014-02-16 04:10:00,5043E-2,5C000490,-0724,1376,5758,028.8,045.3,0.000,771.8,01.15,0.508
2014-02-16 04:11:00,5017E-2,5C000490,-0724,1376,5813,028.8,045.3,0.000,771.8,01.15,0.508
2014-02-16 04:12:00,5022E-2,5C000490,-0724,1376,5748,028.8,045.3,0.000,771.8,01.15,0.508
2014-02-16 04:13:00,5014E-2,5C000490,-0724,1376,5659,028.8,045.3,0.000,771.8,01.15,0.508
2014-02-16 04:14:00,5030E-2,5C000490,-0724,1376,5767,028.8,045.3,0.000,771.8,01.15,0.508
2014-02-16 04:15:00,4987E-2,5C000490,-0724,1376,5632,028.9,045.3,0.000,771.8,01.15,0.508
2014-02-16 04:16:00,4959E-2,5C000490,-0724,1376,5672,028.9,045.3,0.000,771.8,01.15,0.508
2014-02-16 04:17:00,4986E-2,5C000490,-0724,1376,5738,028.9,045.3,0.000,771.8,01.15,0.508
2014-02-16 04:18:00,5056E-2,5C000490,-0724,1376,5739,028.9,045.3,0.000,771.9,01.15,0.508
2014-02-16 04:19:00,5020E-2,5C000490,-0724,1376,5714,028.9,045.3,0.000,771.9,01.15,0.508
2014-02-16 04:20:00,5015E-2,5C000490,-0724,1376,5655,028.9,045.3,0.000,771.8,01.15,0.508
2014-02-16 04:21:00,5048E-2,5C000490,-0724,1376,5683,028.9,045.3,0.000,771.8,01.15,0.508
2014-02-16 04:22:00,4989E-2,5C000490,-0724,1376,5752,028.9,045.3,0.000,771.8,01.15,0.508
2014-02-16 04:23:00,5027E-2,5C000490,-0724,1376,5693,028.9,045.3,0.000,771.9,01.15,0.508